Find Orbcomm FM116

NORAD ID: 41189 Int'l Des: 2015-081 Owner: ORBC Country: US Constellation: orbcomm operational
LEOCIRCULAR

当前视图

正在加载3D地球...

About Orbcomm FM116

Orbcomm FM116 (NORAD 41189) is a orbcomm constellation satellite launched Dec 22, 2015 by ORBC of US. It operates in LEO, CIRCULAR orbit with a mass of 172.00 kg.

关于 Orbcomm FM116

正在加载描述...

即将过境

Passes for default location (London). Set your location on the main map for personalized predictions.

高度历史

Loading altitude history...

两行轨道根数

1 41189U 15081L 26194.25753558 .00000069 00000-0 50849-4 0 9995
2 41189 47.0013 147.3497 0001541 225.9507 134.1252 14.58904456562744
Epoch: Jul 13, 2026 • Age: 25 hours

当前状态

高度 699.5 km
远地点 / 近地点 N/A
速度 7.51 km/s
星下点 37.65°N, 126.49°W
发射日期 Dec 22, 2015
运行时间 10.5 years
类型 other

技术详情

分类 Payload
质量 172.00 kg
干质量 158.00 kg
总质量 172.00 kg
长度 1.00 m
直径 0.50 m
跨度 13.00 m
形状 Box+pan+ant
制造商 SNVL
平台类型 SN-100A
阶段状态 In Orbit
所有者/国家 ORBC/US

Most Searched